GRBBeta
1 60237U 24128C   26122.42010208  .00004515  00000-0  31325-3 0  9997
2 60237  61.9921  16.7941 0046413 125.0558 235.4902 15.06267752 99374
Curium One
1 60242U 24128H   26122.41028625  .00009388  00000-0  54593-3 0  9999
2 60242  61.9803   7.8168 0045978 121.6634 238.8958 15.11777258 99532
ROBUSTA-3A
1 60243U 24128J   26122.41616657  .00009242  00000-0  54930-3 0  9992
2 60243  61.9884  10.0177 0047052 119.1032 241.4786 15.10963061 99501
CatSat
1 60246U 24125J   26122.41796686  .00051611  00000-0  78919-3 0  9993
2 60246  97.2128 334.4880 0022672 355.7047   4.4009 15.53934384100271
HYPERVIEW-1G (RS66S)
1 61772U 24199AP  26122.44055779  .00093709  00000-0  90137-3 0  9993
2 61772  97.2965   0.1989 0008898  91.0013 269.2266 15.66219470127494
AO-123
1 61781U 24199AY  26122.41210824  .00008678  00000-0  25688-3 0  9994
2 61781  97.3061 351.5039 0015802 111.0247 249.2689 15.35001719126909
JINJUSat 1B
1 63210U 25052A   26122.44710198  .00018202  00000-0  58914-3 0  9996
2 63210  97.4057  19.1810 0001612 214.5707 145.5430 15.32095293 63091
NUSHSAT 1
1 63211U 25052B   26122.42841635  .00021643  00000-0  65476-3 0  9990
2 63211  97.4035  19.5833 0001284 213.0159 147.1003 15.34216357 63123
TEVEL2-4
1 63213U 25052D   26122.44838547  .00020125  00000-0  63228-3 0  9999
2 63213  97.3955  18.8104 0000252 248.4422 111.6794 15.33029899 63100
TEVEL2-5
1 63214U 25052E   26121.68074363  .00022075  00000-0  69709-3 0  9999
2 63214  97.3955  18.0031 0000337 285.9180  74.2025 15.32846989 62985
TEVEL2-6
1 63215U 25052F   26122.21419617  .00021010  00000-0  66395-3 0  9991
2 63215  97.3956  18.5214 0000439 266.3780  93.7412 15.32833722 63064
TEVEL2-1
1 63217U 25052H   26122.22815300  .00020966  00000-0  67254-3 0  9997
2 63217  97.3931  18.2119 0000818 335.5708  24.5495 15.32354313 63056
TEVEL2-3
1 63218U 25052J   26122.22430150  .00020796  00000-0  66619-3 0  9999
2 63218  97.3934  18.2246 0000836 335.0046  25.1155 15.32400095 63050
TEVEL2-2
1 63219U 25052K   26121.96746854  .00019275  00000-0  61881-3 0  9997
2 63219  97.3934  17.9531 0000899 336.0550  24.0650 15.32344787 63013
TEVEL2-9
1 63237U 25052AD  26122.21411286  .00019827  00000-0  67355-3 0  9999
2 63237  97.3994  17.6692 0004577 319.9842  40.1061 15.30507450 62992
TEVEL2-7
1 63238U 25052AE  26122.37753745  .00017917  00000-0  61384-3 0  9990
2 63238  97.3997  17.7662 0004649 319.4615  40.6279 15.30252024 63011
TEVEL2-8
1 63239U 25052AF  26122.45066561  .00017926  00000-0  61447-3 0  9993
2 63239  97.3993  17.8176 0004659 320.0858  40.0040 15.30235694 63022
HYDRA-W
1 63490U 25052BL  26113.93882235  .05662091  24406-5  29537-2 0  9997
2 63490  97.3690  18.2798 0008685 203.5899 156.4993 16.20186780 62336
HADES-ICM (SO-125)
1 63492U 25052BN  26122.45157171  .00534473  00000-0  24425-2 0  9997
2 63492  97.3818  25.6886 0005430 158.1774 201.9727 15.82372999 63565
SPIRONE
1 66657U 25274H   26122.22548051  .00003096  00000-0  30016-3 0  9991
2 66657  97.7479  52.1840 0012609 159.5664 200.6062 14.93357708 23366
K-HERO
1 66660U 25274L   26122.24307455  .00001863  00000-0  18079-3 0  9993
2 66660  97.7485  52.3281 0014240 165.3327 194.8309 14.93788067 23377
SNUGLITE-III DURI
1 66661U 25274M   26122.36634578  .00001921  00000-0  18598-3 0  9997
2 66661  97.7480  52.4684 0014853 166.1010 194.0621 14.93846690 23397
SilverSat
1 66909U 98067XV  26113.44966717  .07226154  12288-4  11979-2 0  9998
2 66909  51.6027 190.0749 0007952 333.4666  26.5949 16.32457272 22308
SAKHACUBE-CHOLBON
1 67290U 25313AU  26122.14679712  .00012789  00000-0  52910-3 0  9995
2 67290  97.3948 197.7847 0010420 151.2096 208.9718 15.24038521 18960
RS95S (QMR-KWT-2)
1 67291U 25313AV  26122.10601110  .00015523  00000-0  62197-3 0  9996
2 67291  97.3943 197.8370 0010228 150.8456 209.3355 15.25073442 18963
Ten-Koh2
1 68261U 25241B   26122.42936281  .00007053  00000-0  30672-3 0  9991
2 68261  51.6491 177.3269 0005886 357.7603   2.3348 15.23311591  7934
JACK-002
1 68417U 26067B   26122.38125828  .00007943  00000-0  38466-3 0  9990
2 68417  97.4542  81.5690 0004069  84.7856 275.3843 15.18817497  4990
DISCO 2
1 68431U 26067R   26122.39105203  .00008810  00000-0  43138-3 0  9998
2 68431  97.4578  81.5723 0003765 124.7548 235.4041 15.18399921  4991
HADES-SA (SpinnyONE)
1 68446U 26067AG  26122.35045759  .00018461  00000-0  92130-3 0  9998
2 68446  97.4391  81.3980 0005391 216.6557 143.4308 15.17543693  4979
PARUS-6U1
1 68456U 26067AS  26122.41906691  .00006481  00000-0  33086-3 0  9991
2 68456  97.4530  81.5142 0004580 204.4596 155.6420 15.17037983  4996
SAL-E
1 68458U 26067AU  26122.41903392  .00008931  00000-0  45367-3 0  9995
2 68458  97.4457  81.4844 0004469 215.7650 144.3285 15.17107194  4992
FSI-SAT 2
1 68792U 26088A   26115.68414791  .00000849  00000-0  61705-4 0  9995
2 68792  97.4990 266.2992 0012809 287.5176  72.4651 15.06389719   389
OrigamiSat 2
1 68795U 26088D   26113.82356135  .00001590  00000-0  10758-3 0  9994
2 68795  97.5008 264.4888 0014430 266.4157  93.5420 15.07861282   103
ARICA 2
1 68796U 26088E   26113.82352201  .00001593  00000-0  10752-3 0  9992
2 68796  97.4989 264.4863 0014541 264.6248  95.3321 15.07951070   103
WASEDA-SAT-ZERO-II
1 68797U 26088F   26113.82350997  .00001596  00000-0  10767-3 0  9992
2 68797  97.5012 264.4822 0014814 262.4592  97.4954 15.07975758   102
MANGARO-II-Piscus
1 68798U 26088G   26113.82334568  .00001591  00000-0  10611-3 0  9992
2 68798  97.4999 264.4888 0017891 266.9056  93.0125 15.08353756   101
IO-86
1 40931U          25360.30710720  .00000000  00000-0  12800-3 0    00
2 40931   6.0006 332.5373 0012733 338.8432   8.1437 14.79075515    01
LILIUM-4                
1 71922C 26067AC  26089.50133053 -.00014632  00000+0 -74472-3 0    04
2 71922  97.4497  49.1617 0004341   5.9603 355.7042 15.16896692    16
